Regional Weather Roundup
Issued by NWS

Home | Current Version | Previous Version | Graphics & Text | Print | Product List | Glossary On
Versions: 1 2 3 4 5 6 7 8 9 10 11 12 13 14 15 16 17 18 19 20 21 22 23 24 25 26 27 28 29 30 31 32 33 34 35 36 37 38 39 40 41 42 43 44 45 46 47 48 49 50
693
ASUS45 KABQ 230901
RWRNM
NEW MEXICO REGIONAL WEATHER ROUNDUP
NATIONAL WEATHER SERVICE ALBUQUERQUE NM
300 AM MDT TUE MAY 23 2017

NOTE: "FAIR" MEANS FEW OR NO CLOUDS BELOW 12,000 FEET AGL WITH NO
       SIGNIFICANT WEATHER OR OBSTRUCTIONS TO VISION.

      THIS PRODUCT IS RELEASED AS TWO VERSIONS.  ONE VERSION NEAR
      THE TOP OF THE HOUR CONTAINING PRELIMINARY DATA FROM ALBUQUERQUE
      AND OTHER STATIONS.  A FINAL VERSION WITH ADDITIONAL DATA IS
      ISSUED ABOUT 10 MINUTES AFTER THE HOUR.

NMZ501-503-504-510>518-231000-
NORTHWEST PLATEAU/NORTHCENTRAL MOUNTAINS

CITY           SKY/WX    TMP DP  RH WIND       PRES   REMARKS
FARMINGTON     FAIR      48  28  46 W3        30.12R
LOS ALAMOS     FAIR      49  36  61 SW7       30.20R
SANTA FE       FAIR      49  43  80 S3        30.15R
TAOS           MOCLDY    43  27  52 N7        30.19S
ANGEL FIRE     CLOUDY    40  36  85 N3        30.24F

$$
NMZ402-403-502-505>509-231000-
WESTCENTRAL MOUNTAINS/SOUTHWEST MOUNTAINS

CITY           SKY/WX    TMP DP  RH WIND       PRES   REMARKS
GALLUP         FAIR      37  24  59 CALM      30.20S
GRANTS         FAIR      44  21  40 NW9       30.20R
SILVER CITY    FAIR      55  19  24 NW9       30.10S

$$
NMZ407-409-411-412-231000-
SOUTHERN DESERTS

CITY           SKY/WX    TMP DP  RH WIND       PRES   REMARKS
DEMING         FAIR      58  19  22 CALM      30.02S
LAS CRUCES     FAIR      69  19  15 N9        30.02S
HOLLOMAN AFB   CLEAR     59  32  36 NW13      30.03R
ALAMOGORDO     FAIR      55  18  22 NW8       30.00S
T OR C         FAIR      63  18  17 NW12      30.06F

$$
NMZ519>523-231000-
CENTRAL VALLEYS/CENTRAL HIGHLANDS

CITY           SKY/WX    TMP DP  RH WIND       PRES   REMARKS
ALBUQUERQUE    FAIR      61  25  25 VRB7      30.11R
DOUBLE EAGLE   FAIR      50  26  39 N8        30.12R
CLINES CORNERS CLOUDY    46  39  76 E17G25    30.21R
BELEN          FAIR      51  24  34 CALM      30.09S
SOCORRO        FAIR      54  19  25 CALM      30.07F

$$
NMZ524>526-539-540-231000-
SOUTHCENTRAL MOUNTAINS

CITY           SKY/WX    TMP DP  RH WIND       PRES   REMARKS
RUIDOSO        NOT AVBL

$$
NMZ527>531-231000-
NORTHEAST HIGHLANDS/NORTHEAST PLAINS

CITY           SKY/WX    TMP DP  RH WIND       PRES   REMARKS
LAS VEGAS      CLOUDY    41  39  93 NE16      30.22F
RATON          MOCLDY    41  31  67 N16       30.20F
CLAYTON        LGT RAIN  42  39  89 N23G31    30.19F

$$
NMZ532>537-231000-
EASTCENTRAL PLAINS

CITY           SKY/WX    TMP DP  RH WIND       PRES   REMARKS
SANTA ROSA     CLOUDY    50  46  84 NE20      30.15S
TUCUMCARI      RAIN      51  47  86 NE13      30.17R
CANNON AFB     CLOUDY    51  51 100 N22G29    30.13R
CLOVIS AIRPORT FAIR      50  43  76 N22       30.13S

$$
NMZ028-029-538-231000-
SOUTHEAST PLAINS

CITY           SKY/WX    TMP DP  RH WIND       PRES   REMARKS
ROSWELL        FAIR      59  50  72 N13       30.04R
ARTESIA        FAIR      57  52  82 NW10      30.03R
CARLSBAD       NOT AVBL
HOBBS          FAIR      54  52  94 NW8       30.04R


$$




USA.gov is the U.S. government's official web portal to all federal, state and local government web resources and services.